{"data":{"norad_id":48799,"epoch":"2026-09-20T04:57:03.651264Z","epoch_age_seconds":47255,"freshness":"FRESH","line1":"1 48799U 21045AJ  26263.20629226 -.00000073  00000+0 -22705-3 0  9997","line2":"2 48799  87.8991 240.2551 0002101  67.8266 292.3087 13.15546794256918","mean_motion":13.15546794,"eccentricity":0.0002101,"inclination_deg":87.8991,"raan_deg":240.2551,"arg_perigee_deg":67.8266,"mean_anomaly_deg":292.3087,"bstar":-0.00022705,"rev_number":25691,"period_min":109.46018846062,"perigee_km":1200.1849725595,"apogee_km":1203.3700526377,"semimajor_km":7579.9145125986,"source":"CELESTRAK","updated_at":"2026-09-20T09:00:44.621946Z"}}